[[{"header":{"parameterUnit":"m.s-1","parameterCategory":1,"la1":30.2991,"la2":30.254,"lo1":-89.0895,"lo2":-89.0444,"dy":0.0017,"dx":0.0017,"nx":28,"ny":28,"refTime":"2023-10-09T09:00:00:Z","depth":0,"parameterNumber":2,"parameterNumberName":"U-component_of_WINDS"},"data":[0,0,0,0,0,0,0,0,0,0,0,0,0,0,0,0,0,0,0,0,0,0,0,0,0,0,0,0,0,0,0,0,0,0,0,0,0,0,0,0,0,0,0,0,0,0,0,0,0,0,0,0,0,0,0,0,0,0,0.537,0.5369,0,0.5275,0.5274,0.5273,0.5165,0.5164,0.5162,0.516,0.5062,0.5061,0.506,0,0,0,0,0,0,0,0,0,0,0,0,0,0.5456,0.5455,0.537,0.5369,0.5367,0.5275,0.5274,0.5273,0.5165,0.5164,0.5162,0.516,0.5063,0.5061,0.506,0,0,0,0,0,0,0,0,0,0,0,0,0,0.5396,0.5455,0.537,0.5303,0.5296,0.5276,0.5274,0.5272,0.5166,0.5163,0.5161,0.5159,0.5063,0.5062,0.506,0.5098,0,0,0.5055,0.5054,0,0,0,0,0,0,0,0,0.5399,0.5393,0.5314,0.5307,0.53,0.5229,0.5268,0.5214,0.5167,0.5215,0.516,0.5158,0.512,0.5113,0.5101,0.5093,0.5089,0.5055,0.5054,0.5053,0.5052,0,0,0,0,0,0,0,0.5404,0.5396,0.5332,0.5313,0.5304,0.5277,0.5266,0.5258,0.5182,0.5211,0.5203,0.5193,0.5115,0.5103,0.5098,0.5087,0.5055,0.5053,0.5052,0.5051,0.5106,0.5109,0,0,0,0,0,0,0.5418,0.5401,0.5335,0.5329,0.5345,0.5277,0.5265,0.5254,0.5182,0.5169,0.5195,0.5188,0.5107,0.51,0.5094,0.5134,0.5053,0.5051,0.505,0.5104,0.5107,0.5109,0,0,0,0,0,0,0.5421,0.5413,0.5339,0.5363,0.5351,0.5278,0.5268,0.5254,0.5241,0.517,0.5156,0.5196,0.5105,0.5096,0.5098,0.5129,0.5051,0.5049,0.5101,0.5105,0.5108,0.5215,0,0,0,0,0,0,0.5423,0.5415,0.5429,0.5364,0.535,0.5345,0.527,0.5254,0.5239,0.5229,0.5167,0.5155,0.5102,0.5101,0.5096,0.5125,0.5048,0.5098,0.5103,0.5107,0.5208,0.5222,0.5233,0,0,0,0,0,0.5427,0.5462,0.543,0.5423,0.5366,0.5347,0.5339,0.5278,0.5242,0.5255,0.5209,0.5157,0.5126,0.5102,0.5096,0.5125,0.5096,0.5101,0.5107,0.5203,0.5219,0.5233,0,0,0,0,0,0,0.5532,0.5452,0.5416,0.5431,0.5397,0.5329,0.5344,0.5298,0.5273,0.5265,0.5189,0.5176,0.5187,0.5155,0.513,0.5158,0.5103,0.5108,0.5178,0.5193,0.5206,0.5214,0.5046,0,0,0,0,0,0.5557,0.5549,0.5479,0.55,0.5484,0.5418,0.5407,0.5363,0.5324,0.5309,0.5263,0.5227,0.5209,0.5199,0.5179,0.5203,0.5188,0.522,0.5232,0.5243,0.5248,0.5259,0.5273,0.5128,0.5128,0.5128,0,0,0.5609,0.5564,0.5564,0.552,0.5488,0.5481,0.5406,0.5401,0.5395,0.5308,0.5307,0.5273,0.5227,0.524,0.5244,0.5215,0.5285,0.525,0.5259,0.5258,0.5266,0.528,0.5292,0.5131,0.5131,0.513,0,0,0.57,0.5665,0.5679,0.5648,0.5601,0.5557,0.556,0.5499,0.5473,0.5471,0.5406,0.5397,0.5368,0.5338,0.532,0.54,0.5351,0.5395,0.5461,0.5473,0.5484,0.5494,0.5524,0.5535,0.54,0.5401,0.5401,0,0.577,0.5757,0.5691,0.5691,0.5674,0.5595,0.5608,0.5582,0.553,0.552,0.5488,0.545,0.5414,0.542,0.544,0.5427,0.5428,0.5403,0.5488,0.5497,0.5505,0.5533,0.5544,0.5406,0.5406,0.5405,0.5405,0,0.5847,0.5839,0.5855,0.5809,0.5793,0.58,0.5734,0.5726,0.5684,0.5643,0.5642,0.5595,0.5565,0.5562,0.552,0.5562,0.5546,0.5502,0.5446,0.5526,0.5551,0.5561,0.5415,0.5413,0.5411,0.5409,0,0,0.6002,0.5919,0.5926,0.5905,0.5847,0.5839,0.5842,0.5813,0.5808,0.5775,0.5776,0.5753,0.5712,0.5691,0.5645,0.5655,0.5723,0.561,0.5607,0.5634,0.5768,0.5802,0.5815,0.5689,0.5691,0.5693,0.5772,0,0.6084,0.6085,0.6026,0.6043,0.6036,0.596,0.5962,0.5927,0.5889,0.5876,0.5833,0.5819,0.5765,0.5752,0.5759,0.5714,0.5749,0.5707,0.569,0.569,0.5706,0.5828,0.5864,0.5941,0.5781,0.5782,0.5783,0,0.6179,0.6153,0.6171,0.6113,0.6107,0.6111,0.6079,0.6068,0.6026,0.5997,0.5975,0.5922,0.592,0.5867,0.5864,0.5836,0.5826,0.5803,0.5804,0.5801,0.5743,0.583,0.5964,0.5977,0.5798,0.5797,0.5796,0,0.6293,0.6262,0.6268,0.6252,0.6184,0.6188,0.616,0.6116,0.6103,0.6075,0.6065,0.6037,0.6022,0.6002,0.5943,0.5909,0.5948,0.5889,0.5924,0.5926,0.5937,0.5937,0.6073,0.5928,0.5928,0.5928,0.5927,0,0.6392,0.6406,0.6319,0.6323,0.6336,0.6267,0.6282,0.6246,0.6208,0.6204,0.6136,0.6133,0.6055,0.6044,0.5997,0.6003,0.5996,0.5973,0.5961,0.598,0.5983,0.5973,0.5967,0.5931,0.593,0.5929,0.5929,0,0.6522,0.6464,0.6466,0.6402,0.6386,0.6399,0.6344,0.6345,0.6302,0.6297,0.6292,0.6225,0.6208,0.6147,0.6114,0.6083,0.6104,0.6079,0.6119,0.6111,0.615,0.6148,0.6286,0.6301,0.6145,0.6147,0.6148,0,0.6589,0.6598,0.6535,0.6528,0.6503,0.6492,0.6478,0.641,0.6398,0.6351,0.6358,0.6336,0.6315,0.6291,0.6239,0.6214,0.6189,0.6239,0.6185,0.6204,0.6191,0.6192,0.6193,0.6251,0.6253,0.6255,0.6256,0,0.6715,0.6686,0.6669,0.6642,0.6627,0.6602,0.6573,0.6571,0.6495,0.6485,0.6467,0.6451,0.6418,0.6397,0.6364,0.6334,0.6284,0.6274,0.6281,0.6301,0.6324,0.6314,0.6152,0.6271,0.627,0.6268,0.6268,0.6267,0.6817,0.6822,0.6778,0.6761,0.6733,0.6707,0.6706,0.6663,0.6647,0.6616,0.6576,0.6564,0.6521,0.6471,0.6446,0.6435,0.6406,0.6416,0.6419,0.6423,0.6433,0.6325,0.6428,0.6427,0.6427,0.6426,0.6426,0,0.6941,0.6909,0.6894,0.6856,0.6843,0.6796,0.6761,0.6754,0.6744,0.6709,0.6689,0.6669,0.6648,0.6595,0.6569,0.657,0.6546,0.6566,0.6566,0.656,0.6459,0.6456,0.6586,0.6586,0.6586,0.6586,0.6586,0.6586,0.7004,0.701,0.6976,0.6967,0.6935,0.6923,0.6907,0.6884,0.6856,0.6837,0.6819,0.6784,0.6742,0.6712,0.6691,0.6676,0.667,0.6698,0.6675,0.6582,0.6567,0.6553,0.655,0.6697,0.6697,0.6777,0.6778,0.6779]},{"header":{"parameterUnit":"m.s-1","parameterCategory":1,"la1":30.2991,"la2":30.254,"lo1":-89.0895,"lo2":-89.0444,"dy":0.0017,"dx":0.0017,"nx":28,"ny":28,"refTime":"2023-10-09T09:00:00:Z","depth":0,"parameterNumber":3,"parameterNumberName":"V-component_of_WINDS"},"data":[0,0,0,0,0,0,0,0,0,0,0,0,0,0,0,0,0,0,0,0,0,0,0,0,0,0,0,0,0,0,0,0,0,0,0,0,0,0,0,0,0,0,0,0,0,0,0,0,0,0,0,0,0,0,0,0,0,0,-1.5587,-1.5587,0,-1.5602,-1.5602,-1.5603,-1.5581,-1.558,-1.5579,-1.5578,-1.5593,-1.5594,-1.5595,0,0,0,0,0,0,0,0,0,0,0,0,0,-1.5537,-1.5538,-1.5587,-1.5587,-1.5587,-1.5602,-1.5602,-1.5603,-1.5581,-1.558,-1.5579,-1.5578,-1.5592,-1.5594,-1.5595,0,0,0,0,0,0,0,0,0,0,0,0,0,-1.5556,-1.5538,-1.5587,-1.5578,-1.5577,-1.5602,-1.5602,-1.5603,-1.5581,-1.558,-1.5579,-1.5578,-1.5592,-1.5594,-1.5595,-1.5629,0,0,-1.56,-1.5601,0,0,0,0,0,0,0,0,-1.5555,-1.5558,-1.5579,-1.5579,-1.5578,-1.5588,-1.559,-1.5611,-1.5581,-1.558,-1.5578,-1.5577,-1.5592,-1.5594,-1.5599,-1.5629,-1.563,-1.56,-1.5601,-1.5602,-1.5603,0,0,0,0,0,0,0,-1.5554,-1.5557,-1.5593,-1.5579,-1.5579,-1.5573,-1.5574,-1.5594,-1.5592,-1.558,-1.5578,-1.558,-1.5592,-1.5598,-1.5599,-1.563,-1.56,-1.5602,-1.5603,-1.5603,-1.5689,-1.569,0,0,0,0,0,0,-1.5554,-1.5556,-1.5592,-1.5593,-1.5563,-1.5575,-1.5576,-1.5586,-1.5592,-1.5592,-1.5581,-1.5579,-1.5595,-1.5597,-1.56,-1.5639,-1.5602,-1.5604,-1.5605,-1.5688,-1.5689,-1.5691,0,0,0,0,0,0,-1.5553,-1.5557,-1.5592,-1.5574,-1.5578,-1.5577,-1.5588,-1.5587,-1.5593,-1.5593,-1.5592,-1.5588,-1.5594,-1.5597,-1.5622,-1.5639,-1.5604,-1.5606,-1.5686,-1.5688,-1.569,-1.5719,0,0,0,0,0,0,-1.5551,-1.5557,-1.557,-1.5575,-1.5579,-1.5614,-1.5589,-1.5588,-1.5596,-1.5594,-1.5599,-1.5599,-1.5594,-1.5619,-1.5623,-1.5641,-1.5607,-1.5685,-1.5687,-1.5689,-1.5716,-1.5721,-1.5726,0,0,0,0,0,-1.555,-1.5577,-1.557,-1.5575,-1.5595,-1.5615,-1.5617,-1.5611,-1.5598,-1.561,-1.5611,-1.5599,-1.5637,-1.5622,-1.5626,-1.5645,-1.5684,-1.5686,-1.5689,-1.5714,-1.572,-1.5726,0,0,0,0,0,0,-1.5573,-1.5577,-1.557,-1.56,-1.5607,-1.5611,-1.5627,-1.5618,-1.5629,-1.5626,-1.5618,-1.562,-1.5646,-1.5648,-1.5631,-1.5678,-1.5658,-1.5662,-1.5675,-1.5681,-1.5686,-1.5684,-1.5609,0,0,0,0,0,-1.5582,-1.5597,-1.56,-1.5626,-1.563,-1.5628,-1.5636,-1.5631,-1.5638,-1.5641,-1.5643,-1.565,-1.5664,-1.5673,-1.5685,-1.5717,-1.5717,-1.5732,-1.5736,-1.574,-1.5743,-1.576,-1.5766,-1.57,-1.57,-1.57,0,0,-1.5599,-1.5604,-1.5614,-1.5631,-1.5636,-1.5652,-1.5631,-1.5649,-1.5661,-1.5644,-1.5667,-1.5669,-1.5676,-1.5704,-1.5717,-1.5707,-1.5762,-1.5744,-1.5747,-1.5748,-1.5764,-1.577,-1.5776,-1.5702,-1.5702,-1.5701,0,0,-1.564,-1.5645,-1.5667,-1.5673,-1.5681,-1.568,-1.5686,-1.5691,-1.5692,-1.5715,-1.5703,-1.5717,-1.5741,-1.5746,-1.5752,-1.5797,-1.5786,-1.5801,-1.5826,-1.5842,-1.5848,-1.5852,-1.5868,-1.5873,-1.5805,-1.5805,-1.5805,0,-1.5661,-1.5685,-1.5679,-1.5699,-1.5706,-1.5693,-1.5715,-1.5721,-1.5733,-1.5738,-1.5727,-1.5757,-1.5761,-1.5791,-1.5801,-1.5807,-1.5813,-1.58,-1.5847,-1.5852,-1.5856,-1.5871,-1.5877,-1.5806,-1.5806,-1.5806,-1.5806,0,-1.571,-1.5727,-1.5744,-1.5757,-1.5766,-1.5787,-1.5784,-1.5795,-1.579,-1.5789,-1.5814,-1.5818,-1.5831,-1.5838,-1.5833,-1.5867,-1.5861,-1.5849,-1.5829,-1.5864,-1.5878,-1.5883,-1.5809,-1.5808,-1.5808,-1.5807,0,0,-1.5764,-1.5774,-1.5781,-1.5786,-1.5795,-1.5808,-1.5829,-1.5842,-1.5851,-1.5861,-1.5877,-1.5898,-1.5887,-1.5894,-1.5889,-1.5904,-1.5939,-1.589,-1.589,-1.5899,-1.5976,-1.5985,-1.5991,-1.5932,-1.5933,-1.5934,-1.5976,0,-1.5804,-1.5839,-1.5836,-1.5869,-1.5885,-1.5873,-1.5891,-1.5898,-1.5899,-1.5912,-1.5913,-1.5927,-1.5912,-1.5917,-1.5931,-1.5931,-1.5954,-1.5929,-1.5947,-1.5948,-1.5945,-1.5999,-1.6007,-1.6046,-1.5981,-1.5982,-1.5983,0,-1.5855,-1.5867,-1.5902,-1.5909,-1.5916,-1.5932,-1.5944,-1.5958,-1.5966,-1.5965,-1.5974,-1.5967,-1.5987,-1.5967,-1.5995,-1.5978,-1.5985,-1.5987,-1.5988,-1.5989,-1.5967,-1.6,-1.6058,-1.6064,-1.5991,-1.599,-1.599,0,-1.5891,-1.5915,-1.594,-1.5945,-1.5954,-1.5966,-1.597,-1.5977,-1.5986,-1.5997,-1.6002,-1.6016,-1.6023,-1.6033,-1.603,-1.6016,-1.6058,-1.6038,-1.6057,-1.6058,-1.6066,-1.6065,-1.6126,-1.6072,-1.6072,-1.6072,-1.6072,0,-1.5935,-1.5957,-1.5956,-1.597,-1.5995,-1.5991,-1.6015,-1.6017,-1.6024,-1.6039,-1.603,-1.6044,-1.6039,-1.6053,-1.6051,-1.6074,-1.6077,-1.6077,-1.6076,-1.6077,-1.6077,-1.6081,-1.6078,-1.6073,-1.6073,-1.6073,-1.6073,0,-1.5978,-1.5978,-1.6004,-1.6011,-1.6013,-1.6031,-1.6036,-1.605,-1.6051,-1.607,-1.6075,-1.6075,-1.6091,-1.609,-1.6107,-1.6106,-1.6134,-1.613,-1.6131,-1.613,-1.615,-1.6148,-1.6214,-1.6223,-1.6164,-1.6165,-1.6165,0,-1.6006,-1.6023,-1.6032,-1.6042,-1.6047,-1.6063,-1.6072,-1.6069,-1.6079,-1.609,-1.6103,-1.6118,-1.613,-1.6156,-1.6158,-1.6172,-1.6168,-1.619,-1.617,-1.6171,-1.6167,-1.6166,-1.6168,-1.6194,-1.6195,-1.6195,-1.6195,0,-1.6055,-1.6055,-1.6069,-1.6083,-1.6095,-1.6106,-1.6116,-1.6124,-1.6122,-1.6134,-1.615,-1.616,-1.6179,-1.6194,-1.6207,-1.6211,-1.6203,-1.6202,-1.6207,-1.6209,-1.6208,-1.6208,-1.6142,-1.62,-1.62,-1.62,-1.6199,-1.6199,-1.6091,-1.6106,-1.6115,-1.6131,-1.6138,-1.6148,-1.6162,-1.6165,-1.6179,-1.6194,-1.6191,-1.621,-1.6219,-1.6236,-1.6241,-1.6256,-1.6247,-1.6255,-1.6257,-1.6258,-1.6261,-1.6207,-1.6258,-1.6258,-1.6258,-1.6258,-1.6258,0,-1.614,-1.6145,-1.616,-1.6175,-1.6188,-1.618,-1.6191,-1.6202,-1.6219,-1.6228,-1.624,-1.626,-1.6275,-1.6279,-1.6293,-1.6304,-1.6301,-1.6308,-1.6307,-1.6308,-1.6267,-1.6261,-1.6311,-1.6311,-1.6311,-1.6311,-1.6311,-1.6311,-1.6166,-1.6191,-1.6191,-1.6219,-1.6225,-1.6244,-1.625,-1.6259,-1.6267,-1.6289,-1.6302,-1.6305,-1.6311,-1.6327,-1.634,-1.6341,-1.6346,-1.6355,-1.6354,-1.6316,-1.6311,-1.6306,-1.63,-1.6356,-1.6357,-1.6393,-1.6394,-1.6394]}]]